Springfield, MO

3:03 AM CDT on March 30, 2017 (GMT -0500)
Springfield-Branson Regional

Weather History for KSGF - August, 2014

Change the Weather History Date:

Tuesday, August 26, 2014

  Actual Average Record
Temperature  
Mean Temperature 86 °F 77 °F  
Max Temperature 99 °F 88 °F 100 °F (1938)
Min Temperature 73 °F 65 °F 46 °F (1962)
Degree Days  
Heating Degree Days 0 0  
Month to date heating degree days 0 0  
Since 1 June heating degree days 0 9  
Since 1 July heating degree days 0 0  
Cooling Degree Days 21 12  
Month to date cooling degree days 382 346  
Year to date cooling degree days 1161 1134  
Since 1 June cooling degree days 968 1019  
Growing Degree Days 36 (Base 50)    
Moisture  
Dew Point 67 °F    
Average Humidity 58    
Maximum Humidity 87    
Minimum Humidity 29    
Precipitation  
Precipitation 0.01 in 0.14 in 2.04 in (1941)
Month to date precipitation 1.18 2.89  
Year to date precipitation 21.19 29.45  
Snow  
Snow 0.00 in - - ()
Month to date snowfall 0.0  
Since 1 June snowfall 0.0  
Since 1 July snowfall 0.0  
Snow Depth 0.00 in    
Sea Level Pressure  
Sea Level Pressure 30.05 in    
Wind  
Wind Speed 5 mph (SE)    
Max Wind Speed 25 mph    
Max Gust Speed 32 mph    
Visibility 10 miles    
Events Rain , Thunderstorm    
T = Trace of Precipitation, MM = Missing Value Source: NWS Daily Summary

Daily Weather History Graph

Daily Weather History Graph

Search for Another Location

Airport or City:

Trip Planner

Search our weather history database for the weather conditions in past years. The results will help you decide how hot, cold, wet, or windy it might be!

Date:

Astronomy

Aug. 26, 2014 Rise Set
Actual Time 6:39 AM CDT 7:50 PM CDT
Civil Twilight 6:12 AM CDT 8:17 PM CDT
Nautical Twilight 5:39 AM CDT 8:49 PM CDT
Astronomical Twilight 5:06 AM CDT 9:23 PM CDT
Moon 7:37 AM CDT (8/26) 8:15 PM CDT (8/26)
Length of Visible Light 14h 05m
Length of Day
13h 11m
New Moon, 1% of the Moon is Illuminated
Aug 26
New Moon
Sep 2
First Quarter
Sep 8
Full
Sep 15
Last Quarter
Sep 24
New

Hourly Weather History & Observations

Time (CDT) Temp. Heat Index Dew Point Humidity Pressure Visibility Wind Dir Wind Speed Gust Speed Precip Events Conditions
12:52 AM 82.0 °F 84.9 °F 68.0 °F 62% 30.01 in 10.0 mi SSE 11.5 mph - N/A   Clear
1:52 AM 80.1 °F 82.7 °F 68.0 °F 67% 30.00 in 10.0 mi South 8.1 mph - N/A   Clear
2:52 AM 79.0 °F - 68.0 °F 69% 29.99 in 10.0 mi South 8.1 mph - N/A   Clear
3:52 AM 78.8 °F - 69.8 °F 74% 30.06 in 10.0 mi SSE 8.1 mph - N/A   Clear
4:52 AM 75.0 °F - 68.0 °F 79% 30.03 in 10.0 mi SSE 6.9 mph - N/A   Clear
5:52 AM 75.0 °F - 69.1 °F 82% 30.04 in 10.0 mi Calm Calm - N/A   Clear
6:52 AM 73.4 °F - 69.8 °F 88% 30.11 in 10.0 mi SSE 3.5 mph - N/A   Clear
7:52 AM 78.1 °F - 71.1 °F 79% 30.09 in 10.0 mi SE 3.5 mph - N/A   Clear
8:52 AM 82.9 °F 87.5 °F 71.1 °F 67% 30.08 in 10.0 mi South 6.9 mph - N/A   Clear
9:52 AM 86.0 °F 91.8 °F 71.6 °F 62% 30.13 in 10.0 mi SSW 6.9 mph - N/A   Clear
10:52 AM 89.1 °F 94.1 °F 70.0 °F 53% 30.09 in 10.0 mi Calm Calm - N/A   Clear
11:52 AM 91.0 °F 95.6 °F 69.1 °F 48% 30.09 in 10.0 mi Calm Calm - N/A   Scattered Clouds
12:52 PM 93.9 °F 96.1 °F 64.9 °F 38% 30.07 in 10.0 mi Calm Calm - N/A   Partly Cloudy
1:52 PM 97.0 °F 99.3 °F 64.0 °F 34% 30.04 in 10.0 mi Variable 4.6 mph - N/A   Clear
2:52 PM 97.0 °F 98.3 °F 63.0 °F 32% 30.02 in 10.0 mi Variable 3.5 mph - N/A   Clear
3:52 PM 98.1 °F 98.6 °F 61.0 °F 29% 29.99 in 10.0 mi SW 9.2 mph - N/A   Clear
4:17 PM 97.0 °F 97.4 °F 61.0 °F 30% 30.03 in 10.0 mi Variable 4.6 mph - N/A Thunderstorm Partly Cloudy
4:40 PM 98.1 °F 100.7 °F 64.0 °F 33% 30.03 in 10.0 mi NE 12.7 mph - N/A Thunderstorm Thunderstorm
4:52 PM 91.0 °F 93.8 °F 66.0 °F 44% 29.99 in 10.0 mi NE 15.0 mph 26.5 mph N/A Thunderstorm Thunderstorm
5:37 PM 82.9 °F 85.0 °F 66.0 °F 56% 30.05 in 10.0 mi Variable 4.6 mph - N/A   Mostly Cloudy
5:44 PM 82.0 °F 83.8 °F 64.9 °F 56% 30.04 in 10.0 mi North - - N/A Thunderstorm Mostly Cloudy
5:52 PM 84.0 °F 85.4 °F 64.0 °F 51% 30.01 in 10.0 mi ENE 12.7 mph - N/A Thunderstorm Mostly Cloudy
6:02 PM 84.9 °F 85.9 °F 63.0 °F 48% 30.05 in 10.0 mi NNW 8.1 mph - N/A Thunderstorm Thunderstorm
6:52 PM 82.0 °F 84.9 °F 68.0 °F 62% 30.03 in 10.0 mi NNW 6.9 mph - 0.00 in Thunderstorm Mostly Cloudy
7:28 PM 80.1 °F 82.9 °F 69.1 °F 69% 30.07 in 10.0 mi NE 16.1 mph - 0.00 in Rain , Thunderstorm Light Thunderstorms and Rain
7:49 PM 80.6 °F 83.2 °F 68.0 °F 65% 30.09 in 10.0 mi ENE 3.5 mph - 0.00 in Rain Light Rain
7:52 PM 80.1 °F 82.7 °F 68.0 °F 67% 30.04 in 10.0 mi Calm Calm - 0.00 in Rain Light Rain
8:52 PM 77.0 °F - 68.0 °F 74% 30.03 in 10.0 mi ESE 5.8 mph - 0.01 in   Partly Cloudy
9:52 PM 75.0 °F - 69.1 °F 82% 30.04 in 10.0 mi WNW 3.5 mph - N/A   Clear
10:52 PM 73.0 °F - 68.0 °F 84% 30.05 in 10.0 mi SSE 4.6 mph - N/A   Clear
11:52 PM 73.0 °F - 68.0 °F 84% 30.05 in 10.0 mi NE 5.8 mph - N/A   Clear